Content
SEND FEEDBACK

Daily
Averages
Monthly
Summary
Norway

TRONDHEIM, NORWAY


Home > Europe > Norway
Elevation: 56 feet     Latitude: 63 28N     Longitude: 010 56E

WEATHER
 
SELECT A DAY
Number of Records: 254,500;   Date Range: 7/1/96 - 9/13/14
 
SHARE

PRINT THIS DATA

[ ← Previous Day ]
WEATHER ALMANAC - JANUARY 31, 2013
[ Next Day → ]
[ °C ]   °F
Weather ElementAverageHighLow
Temperature33.6 °F37.4 °F (3:50 am)30.2 °F (7:20 pm)
Dewpoint29.8 °F32 °F (1:20 am)26.6 °F (7:20 pm)
Humidity85.8 %100 % (2:20 pm)73 % (1:00 pm)
Barometer29.07 in29.24 in (10:50 pm)28.74 in (12:50 am)
Wind Speed15.8 mph21.9 mph (9:50 am)
Weather ElementAverage
Visibility7.3 mi
Wind DirectionW (273.8 °)

Weather ElementTotal
Precipitation---
Heating Degree Days31.2 (Base 65)
Averaged from 47 records on January 31, 2013
WEATHER CONDITIONS BREAKOUT
WIND DIRECTION BREAKOUT
WEATHER BY HOUR - JANUARY 31, 2013
[ °C ]   °F
Local TimeTemperatureDewpointHumidityBarometerVisibilityWind DirectionWind SpeedGust SpeedPrecipitationEventsConditions
12:50 AM35.6 °F30.2 °F81 %28.74 in6.2 miWNW (290°)10.4 mphOvercast
1:00 AM35.0 °F31.0 °F78 %28.76 in31.0 miWNW (290°)8.9 mphClear
1:20 AM35.6 °F32.0 °F87 %28.77 in6.2 miWNW (290°)12.7 mphOvercast
1:50 AM35.6 °F32.0 °F87 %28.77 in6.2 miWest (270°)19.6 mphLight Drizzle
2:20 AM35.6 °F32.0 °F87 %28.80 in6.2 miWest (280°)17.3 mphOvercast
3:50 AM37.4 °F32.0 °F81 %28.85 in6.2 miWNW (290°)19.6 mphOvercast
4:50 AM35.6 °F30.2 °F81 %28.91 in6.2 miWNW (290°)15.0 mphScattered Clouds
5:50 AM33.8 °F32.0 °F93 %28.94 in6.2 miWNW (300°)11.5 mphScattered Clouds
6:20 AM33.8 °F30.2 °F87 %28.94 inWNW (290°)17.3 mphClear
6:50 AM33.8 °F30.2 °F87 %28.97 in6.2 miWNW (300°)18.4 mphMostly Cloudy
7:00 AM33.0 °F29.0 °F77 %29.00 in16.0 miNW (320°)13.4 mphSnowLight Snow Showers
7:20 AM33.8 °F28.4 °F81 %29.00 in6.2 miNW (320°)13.8 mphMostly Cloudy
7:50 AM33.8 °F28.4 °F81 %29.00 in6.2 miWNW (290°)12.7 mphScattered Clouds
8:20 AM33.8 °F28.4 °F81 %29.03 in6.2 miWNW (290°)15.0 mphMostly Cloudy
8:50 AM33.8 °F30.2 °F87 %29.03 in6.2 miWest (260°)19.6 mphMostly Cloudy
9:20 AM33.8 °F30.2 °F87 %29.06 in6.2 miWest (260°)18.4 mphScattered Clouds
9:50 AM33.8 °F30.2 °F87 %29.06 in6.2 miWest (260°)21.9 mphScattered Clouds
10:20 AM35.6 °F30.2 °F81 %29.06 in6.2 miWest (270°)19.6 mphScattered Clouds
10:50 AM35.6 °F28.4 °F75 %29.09 in6.2 miWest (280°)16.1 mphMostly Cloudy
11:20 AM35.6 °F28.4 °F75 %29.09 in6.2 miWest (280°)16.1 mphScattered Clouds
11:50 AM35.6 °F30.2 °F81 %29.09 in6.2 miWest (270°)18.4 mphScattered Clouds
12:20 PM35.6 °F28.4 °F75 %29.12 in6.2 miWest (260°)17.3 mphMostly Cloudy
12:50 PM35.6 °F28.4 °F75 %29.12 in6.2 miWSW (250°)11.5 mphMostly Cloudy
1:00 PM35.0 °F29.0 °F73 %29.13 in14.0 miWSW (240°)13.4 mphClear
1:20 PM35.6 °F30.2 °F81 %29.12 in6.2 miWSW (250°)18.4 mphMostly Cloudy
1:50 PM35.6 °F28.4 °F75 %29.12 in6.2 miWest (270°)21.9 mphMostly Cloudy
2:20 PM32.0 °F32.0 °F100 %29.15 inWest (270°)18.4 mphSnowSnow
2:50 PM32.0 °F32.0 °F100 %29.15 inWest (280°)18.4 mphSnowSnow
3:20 PM33.8 °F32.0 °F93 %29.15 in6.2 miWest (280°)16.1 mphMostly Cloudy
3:50 PM32.0 °F30.2 °F93 %29.15 in0.9 miNW (310°)17.3 mphSnowSnow Showers
4:20 PM32.0 °F30.2 °F93 %29.15 in6.2 miWest (270°)17.3 mphScattered Clouds
4:50 PM32.0 °F30.2 °F93 %29.15 in2.5 miWest (270°)11.5 mphSnowLight Snow
5:20 PM33.8 °F32.0 °F93 %29.15 in6.2 miWest (270°)13.8 mphMostly Cloudy
5:50 PM32.0 °F30.2 °F93 %29.18 in6.2 miWest (260°)19.6 mphMostly Cloudy
6:20 PM33.8 °F28.4 °F81 %29.18 in6.2 miWNW (290°)17.3 mphMostly Cloudy
6:50 PM32.0 °F28.4 °F87 %29.18 in6.2 miWest (270°)17.3 mphScattered Clouds
7:00 PM31.0 °F29.0 °F87 %29.20 in25.0 miWest (270°)17.9 mphClear
7:20 PM30.2 °F26.6 °F86 %29.18 in6.2 miWest (270°)16.1 mphScattered Clouds
7:50 PM32.0 °F30.2 °F93 %29.18 in6.2 miWest (280°)11.5 mphScattered Clouds
8:20 PM30.2 °F28.4 °F93 %29.21 in6.2 miWest (260°)9.2 mphMostly Cloudy
8:50 PM30.2 °F28.4 °F93 %29.21 in6.2 miWSW (240°)13.8 mphMostly Cloudy
9:20 PM32.0 °F30.2 °F93 %29.21 in6.2 miWest (270°)16.1 mphMostly Cloudy
9:50 PM32.0 °F28.4 °F87 %29.21 in6.2 miWSW (250°)12.7 mphMostly Cloudy
10:20 PM32.0 °F28.4 °F87 %29.21 in3.7 miWSW (250°)10.4 mphSnowLight Snow
10:50 PM32.0 °F30.2 °F93 %29.24 inWest (270°)19.6 mphSnowSnow Showers
11:20 PM32.0 °F28.4 °F87 %29.24 in6.2 miWSW (250°)16.1 mphOvercast
11:50 PM32.0 °F28.4 °F87 %29.24 in5.6 miSW (230°)16.1 mphMostly Cloudy
Hourly data recorded from ENVA, located miles away from Trondheim, Norway







STORIES FROM OUR PARTNERS